Regional Weather Roundup
Issued by NWS Kansas City/Pleasant Hill, MO

Home | Current Version | Previous Version | Graphics & Text | Print | Product List | Glossary Off
Versions: 1 2 3 4 5 6 7 8 9 10 11 12 13 14 15 16 17 18 19 20 21 22 23 24 25 26 27 28 29 30 31 32 33 34 35 36 37 38 39 40 41 42 43 44 45 46 47 48 49 50

000
ASUS43 KEAX 280910
RWREAX

WEATHER ROUNDUP FOR EASTERN KANSAS AND NORTHWEST MISSOURI
NATIONAL WEATHER SERVICE KANSAS CITY/PLEASANT HILL MO
400 AM CDT THU AUG 28 2014

KSZ040-057-103>105-MOZ028-029-037-043-281000-
...KANSAS CITY METROPOLITAN AREA...

CITY           SKY/WX    TMP DP  RH WIND       PRES   REMARKS
K.C. INTL      MOCLDY    75  72  90 SE8       29.98F
K.C. DOWNTOWN  MOCLDY    78  72  81 SE5       29.96F
LEES SUMMIT    MOCLDY    75  72  90 SE5       29.99F
OLATHE - IXD   MOCLDY    75  73  93 SE7       29.98F
OLATHE - OJC   MOCLDY    74  72  93 SE6       29.97F
LAWRENCE       MOCLDY    76  73  91 SE6       29.96F

$$

MOZ001>008-011>017-020>025-030>033-038>040-044>046-053-054-281000-
...NORTHERN AND CENTRAL MISSOURI...

CITY           SKY/WX    TMP DP  RH WIND       PRES   REMARKS
ST. JOSEPH     CLOUDY    73  71  93 N5        29.98S
MOSBY            N/A     73  72  94 SE3       29.98F
WHITEMAN AFB   MOCLDY    71  52  51 E2        29.99S
CLINTON        PTCLDY    75  72  88 S8        29.99S
SEDALIA        PTCLDY    71  68  90 SE6       30.00F
WARSAW         NOT AVBL
MARSHALL       MOCLDY    73  72  94 E6        30.01R
CHILLICOTHE      N/A     74  71  91 VRB3      30.01F
MOBERLY        MOCLDY    72  68  88 E3        30.03F
KIRKSVILLE     CLOUDY    71  70  96 E6        30.04F

$$

MOZ041-047>049-056>058-063>065-088>090-097-281000-
...EASTERN AND SOUTHERN MISSOURI...

CITY           SKY/WX    TMP DP  RH WIND       PRES   REMARKS
ST. LOUIS INTL PTCLDY    74  70  87 CALM      30.05S
SPIRIT OF STL  CLEAR     70  69  97 CALM      30.04R FOG
COLUMBIA       PTCLDY    70  68  93 SE6       30.02F
JEFFERSON CITY CLEAR     69  67  93 SE6       30.01F
MEXICO         PTCLDY   N/A N/A N/A CALM      30.03F
HANNIBAL       CLEAR     70  68  94 CALM      30.05S
ROLLA          CLEAR     71  67  87 S7        30.03S
LEBANON        CLEAR     73  68  83 S6        30.05S
OSAGE BEACH    CLEAR     72  66  83 SE5       30.02S
SPRINGFIELD    PTCLDY    75  69  81 S8        30.03S
BRANSON        CLEAR     73  68  83 CALM      30.05S
NEVADA         CLEAR     73  68  83 S7        30.00S
JOPLIN         CLEAR     75  69  81 S8        30.00F
WEST PLAINS    CLEAR     72  67  84 CALM      30.07F

$$

IAZ060-094-KSZ022-034>040-054-083-096-NEZ052-066-093-281000-
...KANSAS...SOUTHEAST NEBRASKA AND IOWA...

CITY           SKY/WX    TMP DP  RH WIND       PRES   REMARKS
TOPEKA         MOCLDY    77  74  90 SE6       29.95F
MANHATTAN      CLOUDY    80  68  66 S8        29.93F
EMPORIA        CLOUDY    76  67  73 S13       29.96F
CHANUTE        CLEAR     73  68  84 SE6       29.97F
WICHITA        CLOUDY    79  65  62 S9        29.95F
OMAHA          TSTM      71  68  90 E7        29.99F
LINCOLN        TSTM      70  69  97 E9        29.97F FOG
FALLS CITY     CLOUDY    73  72  96 E7        29.95F
LAMONI         CLOUDY    71  69  93 E5        30.02F
DES MOINES     CLOUDY    70  65  84 E5        30.03S

$$



USA.gov is the U.S. government's official web portal to all federal, state and local government web resources and services.